• Processing (Info)

  • MPEC 2008-E93 : 2007 UQ13

    The following Minor Planet Electronic Circular may be linked-to from your own Web pages, but must not otherwise be redistributed electronically.

    A form allowing access to any MPEC is at the bottom of this page.


    Read MPEC 2008-E92 Read MPEC 2008-E94


    M.P.E.C. 2008-E93                                Issued 2008 Mar. 11, 22:10 UT
    
         The Minor Planet Electronic Circulars contain information on unusual
             minor planets and routine data on comets.  They are published
       on behalf of Commission 20 of the International Astronomical Union by the
              Minor Planet Center, Smithsonian Astrophysical Observatory,
                              Cambridge, MA 02138, U.S.A.
    
                 Prepared using the Tamkin Foundation Computer Network
    
                                  MPC@CFA.HARVARD.EDU
              URL http://www.cfa.harvard.edu/iau/mpc.html  ISSN 1523-6714
    
                                       2007 UQ13
    
                               Revision to MPEC 2007-U95
    
    Additional Observations:
         K07U13Q  C2002 10 30.45807 03 21 38.85 +11 44 40.5          20.0 R EE093644
         K07U13Q  C2002 10 30.50983 03 21 30.64 +11 42 26.5          20.3 R EE093644
         K07U13Q  C2002 11 22.27418 02 29 48.64 -01 59 24.0          19.8 R EE093644
         K07U13Q  C2002 11 22.29450 02 29 46.47 -01 59 55.9          20.0 R EE093644
         K07U13Q  C2002 12 07.19022 02 11 29.14 -06 36 35.2          21.5 R EE093644
    
    Observer details:
    644 Palomar Mountain/NEAT.  Observers E. F. Helin, S. Pravdo, K. Lawrence,
        K. Kuluhiwa, M. Hicks.  Measurer R. Matson.  1.2-m Schmidt + CCD.
    
    Orbital elements:
    2007 UQ13                                                Earth MOID = 0.2921 AU
    Epoch 2008 May 14.0 TT = JDT 2454600.5                  MPC
    M 272.43959              (2000.0)            P               Q
    n   0.78363836     Peri.   29.37338     -0.42755965     +0.85294019
    a   1.1651780      Node   217.72473     -0.89510497     -0.44577800
    e   0.4252920      Incl.   29.30410     -0.12641137     +0.27161555
    P   1.26           H   19.8           G   0.15           U   3
    Residuals in seconds of arc
    021030 644  0.1-  0.3+    071030 J95  0.1+  0.1+    071107 H55  0.3+  0.1+
    021030 644  0.1+  0.3-    071030 J95  0.2-  0.3+    071107 H55  0.5-  0.2-
    021122 644  0.0   0.2+    071102 G96  0.3-  0.3-    071117 474  0.3-  1.0-
    021122 644  0.0   0.3-    071102 G96  0.1-  0.3-    071117 474  0.3-  0.7-
    021207 644  0.2-  0.3-    071102 G96  0.2-  0.0     071117 474  0.0   0.2+
    071030 G96  0.0   0.3-    071102 G96  0.0   0.2-    071117 474  0.3-  0.1+
    071030 G96  0.3-  0.1-    071102 G96  0.1-  0.2-    071119 689  0.4+  0.0
    071030 G96  0.1+  0.1-    071102 G96  0.1+  0.4-    071119 689  0.2+  0.5-
    071030 G96  0.1+  0.1-    071102 G96  0.2+  0.5-    071119 689  0.3+  0.3-
    071030 G96  0.2-  0.2+    071102 G96  0.4+  0.3-    071204 291  0.3+  0.7+
    071030 G96  0.0   0.2+    071105 704  0.7+  0.2+    071204 291  0.4+  0.1+
    071030 G96  0.2+  0.1+    071105 704  0.2-  1.2+    071204 291  0.5+  0.0
    071030 G96  0.0   0.2+    071105 704 (2.1-  0.1+)   080227 568  0.0   0.0
    071030 J95  0.4-  0.1-    071107 H55  0.0   0.3-    080227 568  0.1-  0.0
    
    Gareth V. Williams           (C) Copyright 2008 MPC           M.P.E.C. 2008-E93
    

    Read MPEC 2008-E92 Read MPEC 2008-E94


    MPEC number:

    Enter an MPEC number in one of the following forms:

    • 1997-B01 (the full form)
    • J97B01 (the packed version of the full form)
    • B01 (the abbreviated form)